Time,TemperatureF,DewpointF,PressureIn,WindDirection,WindDirectionDegrees,WindSpeedMPH,WindSpeedGustMPH,Humidity,HourlyPrecipIn,Conditions,Clouds,dailyrainin,SoftwareType,DateUTC
2013-05-31 00:01:00,70.2,32.7,29.09,WNW,300,4.9,6.3,25,0.00,,SKC,0.00,VWS V14.01,2013-05-31 05:01:00,
2013-05-31 00:06:00,69.6,35.1,29.09,NW,308,3.1,3.6,28,0.00,,SKC,0.00,VWS V14.01,2013-05-31 05:06:00,
2013-05-31 00:11:00,69.8,38.6,29.09,WNW,291,3.1,3.1,32,0.00,,SKC,0.00,VWS V14.01,2013-05-31 05:11:00,
2013-05-31 00:16:00,69.8,38.6,29.09,SSW,207,5.4,5.4,32,0.00,,SKC,0.00,VWS V14.01,2013-05-31 05:16:00,
2013-05-31 00:21:00,70.7,34.2,29.09,SSE,161,2.7,3.1,26,0.00,,SKC,0.00,VWS V14.01,2013-05-31 05:21:00,
2013-05-31 00:26:00,71.1,33.5,29.09,WSW,244,4.9,8.1,25,0.00,,SKC,0.00,VWS V14.01,2013-05-31 05:26:00,
2013-05-31 00:31:00,71.2,33.6,29.06,WSW,258,3.6,5.4,25,0.00,,SKC,0.00,VWS V14.01,2013-05-31 05:31:00,
2013-05-31 00:36:00,71.2,33.6,29.06,SSE,165,3.1,3.6,25,0.00,,SKC,0.00,VWS V14.01,2013-05-31 05:36:00,
2013-05-31 00:41:00,71.1,34.5,29.06,South,177,2.7,3.6,26,0.00,,SKC,0.00,VWS V14.01,2013-05-31 05:41:00,
2013-05-31 00:46:00,70.3,39.1,29.06,SW,221,4.9,4.9,32,0.00,,SKC,0.00,VWS V14.01,2013-05-31 05:46:00,
2013-05-31 00:51:00,69.8,40.2,29.06,South,180,4.0,5.4,34,0.00,,SKC,0.00,VWS V14.01,2013-05-31 05:51:00,
2013-05-31 00:56:00,69.3,41.2,29.06,SSE,167,3.6,3.6,36,0.00,,SKC,0.00,VWS V14.01,2013-05-31 05:56:00,
2013-05-31 01:01:00,68.5,45.2,29.06,South,184,6.3,6.3,43,0.00,,SKC,0.00,VWS V14.01,2013-05-31 06:01:00,
2013-05-31 01:06:00,67.8,48.0,29.06,SSE,161,5.8,6.3,49,0.00,,SKC,0.00,VWS V14.01,2013-05-31 06:06:00,
2013-05-31 01:11:00,67.3,50.1,29.06,SSW,200,5.8,5.8,54,0.00,,SKC,0.00,VWS V14.01,2013-05-31 06:11:00,
2013-05-31 01:16:00,67.3,52.5,29.06,South,169,3.6,4.9,59,0.00,,SKC,0.00,VWS V14.01,2013-05-31 06:16:00,
2013-05-31 01:21:00,67.1,53.7,29.06,South,182,3.6,4.9,62,0.00,,SKC,0.00,VWS V14.01,2013-05-31 06:21:00,
2013-05-31 01:26:00,66.9,54.8,29.06,SSE,151,3.1,5.4,65,0.00,,SKC,0.00,VWS V14.01,2013-05-31 06:26:00,
2013-05-31 01:31:00,66.9,56.0,29.03,SSE,164,4.9,8.1,68,0.00,,SKC,0.00,VWS V14.01,2013-05-31 06:31:00,
2013-05-31 01:36:00,66.7,56.3,29.03,South,177,3.1,4.9,69,0.00,,SKC,0.00,VWS V14.01,2013-05-31 06:36:00,
2013-05-31 01:41:00,66.7,56.7,29.03,South,180,4.9,6.3,70,0.00,,SKC,0.00,VWS V14.01,2013-05-31 06:41:00,
2013-05-31 01:46:00,66.7,57.0,29.03,South,176,5.8,5.8,71,0.00,,SKC,0.00,VWS V14.01,2013-05-31 06:46:00,
2013-05-31 01:51:00,66.7,57.4,29.03,South,187,2.7,4.9,72,0.04,,SKC,0.04,VWS V14.01,2013-05-31 06:51:00,
2013-05-31 01:56:00,66.7,57.8,29.03,South,175,3.1,3.1,73,0.04,,SKC,0.04,VWS V14.01,2013-05-31 06:56:00,
2013-05-31 02:01:00,66.7,58.2,29.03,South,176,3.1,3.6,74,0.04,,SKC,0.04,VWS V14.01,2013-05-31 07:01:00,
2013-05-31 02:06:00,66.6,58.0,29.03,SSW,192,4.0,4.0,74,0.04,,SKC,0.04,VWS V14.01,2013-05-31 07:06:00,
2013-05-31 02:11:00,66.7,57.8,29.03,South,179,4.0,5.4,73,0.04,,SKC,0.04,VWS V14.01,2013-05-31 07:11:00,
2013-05-31 02:16:00,66.6,57.7,29.03,SSW,196,3.6,4.0,73,0.04,,SKC,0.04,VWS V14.01,2013-05-31 07:16:00,
2013-05-31 02:21:00,66.6,57.3,29.03,South,182,3.1,4.0,72,0.04,,SKC,0.04,VWS V14.01,2013-05-31 07:21:00,
2013-05-31 02:26:00,66.6,57.3,29.03,South,184,4.0,4.0,72,0.04,,SKC,0.04,VWS V14.01,2013-05-31 07:26:00,
2013-05-31 02:31:00,66.6,57.3,29.00,South,183,5.4,5.4,72,0.04,,SKC,0.04,VWS V14.01,2013-05-31 07:31:00,
2013-05-31 02:36:00,66.6,57.7,29.00,SSE,167,2.2,2.2,73,0.04,,SKC,0.04,VWS V14.01,2013-05-31 07:36:00,
2013-05-31 02:41:00,66.4,57.8,29.00,SSE,168,4.0,6.3,74,0.04,,SKC,0.04,VWS V14.01,2013-05-31 07:41:00,
2013-05-31 02:46:00,66.4,58.2,29.00,SSE,158,7.6,7.6,75,0.04,,SKC,0.04,VWS V14.01,2013-05-31 07:46:00,
2013-05-31 02:51:00,66.4,58.6,29.00,SSE,162,3.6,3.6,76,0.00,,SKC,0.04,VWS V14.01,2013-05-31 07:51:00,
2013-05-31 02:56:00,66.4,58.6,29.00,SSE,151,2.2,4.0,76,0.00,,SKC,0.04,VWS V14.01,2013-05-31 07:56:00,
2013-05-31 03:01:00,66.4,58.6,29.00,SSW,198,3.1,6.3,76,0.00,,SKC,0.04,VWS V14.01,2013-05-31 08:01:00,
2013-05-31 03:06:00,66.6,58.8,29.00,South,175,4.9,6.7,76,0.00,,SKC,0.04,VWS V14.01,2013-05-31 08:06:00,
2013-05-31 03:11:00,66.6,58.8,29.00,SSW,208,2.7,2.7,76,0.00,,SKC,0.04,VWS V14.01,2013-05-31 08:11:00,
2013-05-31 03:16:00,66.6,59.1,29.00,South,180,4.0,5.8,77,0.00,,SKC,0.04,VWS V14.01,2013-05-31 08:16:00,
2013-05-31 03:21:00,66.4,59.0,29.00,SSW,196,2.7,4.9,77,0.00,,SKC,0.04,VWS V14.01,2013-05-31 08:21:00,
2013-05-31 03:26:00,66.4,59.0,29.00,SSE,168,2.7,5.4,77,0.00,,SKC,0.04,VWS V14.01,2013-05-31 08:26:00,
2013-05-31 03:31:00,66.4,58.6,29.00,SSE,160,0.0,3.1,76,0.00,,SKC,0.04,VWS V14.01,2013-05-31 08:31:00,
2013-05-31 03:36:00,66.4,58.2,29.00,SSE,165,3.1,4.0,75,0.00,,SKC,0.04,VWS V14.01,2013-05-31 08:36:00,
2013-05-31 03:41:00,66.4,58.6,29.00,SSE,167,2.7,4.0,76,0.00,,SKC,0.04,VWS V14.01,2013-05-31 08:41:00,
2013-05-31 03:46:00,66.4,58.2,29.00,South,176,6.3,6.3,75,0.00,,SKC,0.04,VWS V14.01,2013-05-31 08:46:00,
2013-05-31 03:51:00,66.4,57.5,29.00,South,184,5.8,5.8,73,0.00,,SKC,0.04,VWS V14.01,2013-05-31 08:51:00,
2013-05-31 03:56:00,66.6,57.3,29.00,South,185,10.1,10.1,72,0.00,,SKC,0.04,VWS V14.01,2013-05-31 08:56:00,
2013-05-31 04:01:00,66.7,57.4,29.00,SSE,167,2.2,7.2,72,0.00,,SKC,0.04,VWS V14.01,2013-05-31 09:01:00,
2013-05-31 04:06:00,66.7,57.4,29.00,SSE,158,0.0,8.1,72,0.00,,SKC,0.04,VWS V14.01,2013-05-31 09:06:00,
2013-05-31 04:11:00,66.7,57.4,29.00,South,191,5.4,6.3,72,0.00,,SKC,0.04,VWS V14.01,2013-05-31 09:11:00,
2013-05-31 04:16:00,66.7,57.0,29.00,SSW,192,4.9,7.6,71,0.00,,SKC,0.04,VWS V14.01,2013-05-31 09:16:00,
2013-05-31 04:21:00,66.9,56.8,29.00,South,175,5.8,8.7,70,0.00,,SKC,0.04,VWS V14.01,2013-05-31 09:21:00,
2013-05-31 04:26:00,66.9,56.8,29.00,South,190,6.3,6.3,70,0.00,,SKC,0.04,VWS V14.01,2013-05-31 09:26:00,
2013-05-31 04:30:00,66.9,56.8,29.00,SSW,201,5.4,10.1,70,0.00,,SKC,0.04,VWS V14.01,2013-05-31 09:30:00,
2013-05-31 04:35:00,67.1,56.6,29.00,SSE,156,5.4,5.4,69,0.00,,SKC,0.04,VWS V14.01,2013-05-31 09:35:00,
2013-05-31 04:40:00,66.9,56.8,29.00,South,183,3.1,6.3,70,0.00,,SKC,0.04,VWS V14.01,2013-05-31 09:40:00,
2013-05-31 04:45:00,67.1,56.6,29.00,South,169,5.8,6.3,69,0.00,,SKC,0.04,VWS V14.01,2013-05-31 09:45:00,
2013-05-31 04:50:00,67.1,57.0,29.00,SSE,156,5.4,5.4,70,0.00,,SKC,0.04,VWS V14.01,2013-05-31 09:50:00,
2013-05-31 04:55:00,67.1,57.0,29.00,SSW,200,7.6,7.6,70,0.00,,SKC,0.04,VWS V14.01,2013-05-31 09:55:00,
2013-05-31 05:00:00,67.1,56.6,29.00,South,175,2.7,5.8,69,0.00,,SKC,0.04,VWS V14.01,2013-05-31 10:00:00,
2013-05-31 05:05:00,67.3,56.8,29.00,South,185,8.1,8.1,69,0.00,,SKC,0.04,VWS V14.01,2013-05-31 10:05:00,
2013-05-31 05:10:00,67.3,56.4,29.00,SSE,167,3.1,5.8,68,0.00,,SKC,0.04,VWS V14.01,2013-05-31 10:10:00,
2013-05-31 05:15:00,67.6,56.3,28.97,SSE,153,3.6,4.0,67,0.00,,SKC,0.04,VWS V14.01,2013-05-31 10:15:00,
2013-05-31 05:20:00,67.5,56.5,28.97,SSE,167,4.0,5.8,68,0.00,,SKC,0.04,VWS V14.01,2013-05-31 10:20:00,
2013-05-31 05:25:00,67.5,57.0,28.97,South,179,4.0,4.5,69,0.00,,SKC,0.04,VWS V14.01,2013-05-31 10:25:00,
2013-05-31 05:30:00,67.5,56.5,29.00,SSE,161,2.2,5.4,68,0.00,,SKC,0.04,VWS V14.01,2013-05-31 10:30:00,
2013-05-31 05:35:00,67.6,56.3,29.00,South,172,6.3,6.3,67,0.00,,SKC,0.04,VWS V14.01,2013-05-31 10:35:00,
2013-05-31 05:40:00,67.6,57.1,29.00,South,170,3.1,4.0,69,0.00,,SKC,0.04,VWS V14.01,2013-05-31 10:40:00,
2013-05-31 05:45:00,67.6,56.7,29.00,SSW,195,7.6,7.6,68,0.00,,SKC,0.04,VWS V14.01,2013-05-31 10:45:00,
2013-05-31 05:50:00,67.6,56.7,29.00,SSE,164,3.6,3.6,68,0.00,,SKC,0.04,VWS V14.01,2013-05-31 10:50:00,
2013-05-31 05:55:00,67.8,56.1,29.00,South,178,4.9,5.4,66,0.00,,SKC,0.04,VWS V14.01,2013-05-31 10:55:00,
2013-05-31 06:00:00,67.8,56.1,29.00,South,177,2.2,2.2,66,0.00,,SKC,0.04,VWS V14.01,2013-05-31 11:00:00,
2013-05-31 06:05:00,67.8,55.6,29.00,WSW,237,3.6,5.8,65,0.00,,SKC,0.04,VWS V14.01,2013-05-31 11:05:00,
2013-05-31 06:10:00,68.0,55.4,29.00,South,182,3.6,4.0,64,0.00,,SKC,0.04,VWS V14.01,2013-05-31 11:10:00,
2013-05-31 06:15:00,68.0,55.8,29.03,SSE,163,3.6,3.6,65,0.00,,SKC,0.04,VWS V14.01,2013-05-31 11:15:00,
2013-05-31 06:20:00,68.0,55.8,29.03,SSW,202,6.3,6.3,65,0.00,,SKC,0.04,VWS V14.01,2013-05-31 11:20:00,
2013-05-31 06:25:00,68.0,54.5,29.03,South,176,2.2,2.2,62,0.00,,SKC,0.04,VWS V14.01,2013-05-31 11:25:00,
2013-05-31 06:30:00,67.8,53.9,29.03,South,180,0.0,6.3,61,0.00,,SKC,0.04,VWS V14.01,2013-05-31 11:30:00,
2013-05-31 06:35:00,68.0,54.1,29.03,South,175,3.1,3.1,61,0.00,,SKC,0.04,VWS V14.01,2013-05-31 11:35:00,
2013-05-31 06:40:00,67.8,53.4,29.03,South,175,3.1,4.9,60,0.00,,SKC,0.04,VWS V14.01,2013-05-31 11:40:00,
2013-05-31 06:45:00,68.0,52.2,29.03,South,178,8.7,8.7,57,0.00,,SKC,0.04,VWS V14.01,2013-05-31 11:45:00,
2013-05-31 06:50:00,68.2,51.4,29.03,South,187,6.3,6.3,55,0.00,,SKC,0.04,VWS V14.01,2013-05-31 11:50:00,
2013-05-31 06:55:00,68.2,49.9,29.03,SSW,193,7.6,8.1,52,0.00,,SKC,0.04,VWS V14.01,2013-05-31 11:55:00,
2013-05-31 07:00:00,68.4,50.1,29.03,SE,137,5.4,5.4,52,0.00,,SKC,0.04,VWS V14.01,2013-05-31 12:00:00,
2013-05-31 07:05:00,68.4,49.0,29.03,SSE,167,3.1,3.1,50,0.00,,SKC,0.04,VWS V14.01,2013-05-31 12:05:00,
2013-05-31 07:10:00,68.4,49.5,29.03,SSE,162,3.6,3.6,51,0.00,,SKC,0.04,VWS V14.01,2013-05-31 12:10:00,
2013-05-31 07:15:00,68.4,49.0,29.03,SSE,162,3.1,3.1,50,0.00,,SKC,0.04,VWS V14.01,2013-05-31 12:15:00,
2013-05-31 07:20:00,68.4,47.9,29.03,South,173,3.6,6.3,48,0.00,,SKC,0.04,VWS V14.01,2013-05-31 12:20:00,
2013-05-31 07:25:00,68.4,48.5,29.03,South,173,7.6,7.6,49,0.00,,SKC,0.04,VWS V14.01,2013-05-31 12:25:00,
2013-05-31 07:30:00,68.2,47.2,29.03,South,179,4.0,4.0,47,0.00,,SKC,0.04,VWS V14.01,2013-05-31 12:30:00,
2013-05-31 07:35:00,68.4,46.8,29.03,SSE,163,5.4,5.4,46,0.00,,SKC,0.04,VWS V14.01,2013-05-31 12:35:00,
2013-05-31 07:40:00,68.5,46.4,29.03,South,173,6.3,6.3,45,0.00,,SKC,0.04,VWS V14.01,2013-05-31 12:40:00,
2013-05-31 07:45:00,68.5,45.2,29.03,South,171,5.4,7.2,43,0.00,,SKC,0.04,VWS V14.01,2013-05-31 12:45:00,
2013-05-31 07:50:00,68.5,45.8,29.03,SSE,159,5.8,5.8,44,0.00,,SKC,0.04,VWS V14.01,2013-05-31 12:50:00,
2013-05-31 07:55:00,68.5,44.6,29.03,SSW,213,7.6,7.6,42,0.00,,SKC,0.04,VWS V14.01,2013-05-31 12:55:00,
2013-05-31 08:00:00,69.1,45.0,29.03,South,174,0.0,0.0,42,0.00,,SKC,0.04,VWS V14.01,2013-05-31 13:00:00,
2013-05-31 08:05:00,68.9,43.0,29.03,SSE,166,3.6,6.3,39,0.00,,SKC,0.04,VWS V14.01,2013-05-31 13:05:00,
2013-05-31 08:10:00,68.9,43.6,29.03,South,181,7.6,7.6,40,0.00,,SKC,0.04,VWS V14.01,2013-05-31 13:10:00,
2013-05-31 08:15:00,69.3,43.9,29.03,South,182,3.1,8.1,40,0.00,,SKC,0.04,VWS V14.01,2013-05-31 13:15:00,
2013-05-31 08:20:00,70.0,43.2,29.03,SSE,162,5.4,7.6,38,0.00,,SKC,0.04,VWS V14.01,2013-05-31 13:20:00,
2013-05-31 08:25:00,70.3,43.5,29.03,South,181,3.1,5.8,38,0.00,,SKC,0.04,VWS V14.01,2013-05-31 13:25:00,
2013-05-31 08:30:00,70.3,40.7,29.03,SSE,159,8.1,8.1,34,0.00,,SKC,0.04,VWS V14.01,2013-05-31 13:30:00,
2013-05-31 08:35:00,70.2,40.5,29.03,South,177,3.6,5.4,34,0.00,,SKC,0.04,VWS V14.01,2013-05-31 13:35:00,
2013-05-31 08:40:00,70.2,40.5,29.03,SSW,203,6.3,10.1,34,0.00,,SKC,0.04,VWS V14.01,2013-05-31 13:40:00,
2013-05-31 08:45:00,70.3,40.7,29.03,South,182,6.3,6.3,34,0.00,,SKC,0.04,VWS V14.01,2013-05-31 13:45:00,
2013-05-31 08:50:00,70.9,42.6,29.03,SSW,210,3.6,3.6,36,0.00,,SKC,0.04,VWS V14.01,2013-05-31 13:50:00,
2013-05-31 08:55:00,71.1,40.5,29.03,South,181,5.8,8.1,33,0.00,,SKC,0.04,VWS V14.01,2013-05-31 13:55:00,
2013-05-31 09:00:00,71.2,40.7,29.03,South,173,4.0,4.0,33,0.00,,SKC,0.04,VWS V14.01,2013-05-31 14:00:00,
2013-05-31 09:05:00,71.6,41.0,29.03,SSE,166,5.8,8.1,33,0.00,,SKC,0.04,VWS V14.01,2013-05-31 14:05:00,
2013-05-31 09:10:00,71.8,38.7,29.03,SW,215,7.6,7.6,30,0.00,,SKC,0.04,VWS V14.01,2013-05-31 14:10:00,
2013-05-31 09:15:00,72.1,39.9,29.03,South,187,8.7,8.7,31,0.00,,SKC,0.04,VWS V14.01,2013-05-31 14:15:00,
2013-05-31 09:20:00,72.1,39.0,29.03,SE,141,5.4,5.8,30,0.00,,SKC,0.04,VWS V14.01,2013-05-31 14:20:00,
2013-05-31 09:25:00,72.0,40.5,29.03,SSE,168,5.4,5.4,32,0.00,,SKC,0.04,VWS V14.01,2013-05-31 14:25:00,
2013-05-31 09:30:00,72.0,40.5,29.03,SSW,192,7.6,7.6,32,0.00,,SKC,0.04,VWS V14.01,2013-05-31 14:30:00,
2013-05-31 09:35:00,71.8,41.2,29.03,SSE,164,2.7,3.6,33,0.00,,SKC,0.04,VWS V14.01,2013-05-31 14:35:00,
2013-05-31 09:40:00,71.6,40.2,29.03,SSE,157,4.0,7.6,32,0.00,,SKC,0.04,VWS V14.01,2013-05-31 14:40:00,
2013-05-31 09:45:00,71.6,40.2,29.03,South,175,5.4,5.4,32,0.00,,SKC,0.04,VWS V14.01,2013-05-31 14:45:00,
2013-05-31 09:50:00,72.0,41.3,29.03,South,172,2.7,3.1,33,0.00,,SKC,0.04,VWS V14.01,2013-05-31 14:50:00,
2013-05-31 09:55:00,72.3,40.8,29.03,SSE,167,2.7,5.4,32,0.00,,SKC,0.04,VWS V14.01,2013-05-31 14:55:00,
2013-05-31 10:00:00,72.9,41.3,29.03,SSE,147,4.9,5.8,32,0.00,,SKC,0.04,VWS V14.01,2013-05-31 15:00:00,
2013-05-31 10:05:00,73.0,39.8,29.03,SW,217,3.6,3.6,30,0.00,,SKC,0.04,VWS V14.01,2013-05-31 15:05:00,
2013-05-31 10:10:00,73.8,40.4,29.03,SSE,149,3.6,4.9,30,0.00,,SKC,0.04,VWS V14.01,2013-05-31 15:10:00,
2013-05-31 10:15:00,74.1,39.0,29.03,SSE,162,0.0,4.0,28,0.00,,SKC,0.04,VWS V14.01,2013-05-31 15:15:00,
2013-05-31 10:20:00,74.3,38.2,29.03,SSW,203,4.0,4.0,27,0.00,,SKC,0.04,VWS V14.01,2013-05-31 15:20:00,
2013-05-31 10:25:00,73.9,37.9,29.03,SSW,197,4.0,4.0,27,0.00,,SKC,0.04,VWS V14.01,2013-05-31 15:25:00,
2013-05-31 10:30:00,73.8,38.7,29.03,WSW,238,7.6,7.6,28,0.00,,SKC,0.04,VWS V14.01,2013-05-31 15:30:00,
2013-05-31 10:35:00,74.1,40.7,29.03,South,177,3.6,3.6,30,0.00,,SKC,0.04,VWS V14.01,2013-05-31 15:35:00,
2013-05-31 10:40:00,74.5,37.4,29.03,SSE,165,6.7,7.6,26,0.00,,SKC,0.04,VWS V14.01,2013-05-31 15:40:00,
2013-05-31 10:45:00,74.7,37.5,29.03,South,184,6.7,8.7,26,0.00,,SKC,0.04,VWS V14.01,2013-05-31 15:45:00,
2013-05-31 10:50:00,74.3,37.2,29.03,SSE,159,5.8,5.8,26,0.00,,SKC,0.04,VWS V14.01,2013-05-31 15:50:00,
2013-05-31 10:55:00,74.3,40.0,29.03,South,183,6.3,6.3,29,0.00,,SKC,0.04,VWS V14.01,2013-05-31 15:55:00,
2013-05-31 11:00:00,74.1,38.0,29.03,South,184,5.8,8.3,27,0.00,,SKC,0.04,VWS V14.01,2013-05-31 16:00:00,
2013-05-31 11:05:00,74.1,39.0,29.03,East,80,2.7,3.1,28,0.00,,SKC,0.04,VWS V14.01,2013-05-31 16:05:00,
2013-05-31 11:10:00,74.1,40.7,29.03,South,189,5.4,5.8,30,0.00,,SKC,0.04,VWS V14.01,2013-05-31 16:10:00,
2013-05-31 11:15:00,73.8,39.5,29.06,South,170,4.9,8.3,29,0.00,,SKC,0.04,VWS V14.01,2013-05-31 16:15:00,
2013-05-31 11:20:00,73.6,41.1,29.06,SSW,193,4.0,5.8,31,0.00,,SKC,0.04,VWS V14.01,2013-05-31 16:20:00,
2013-05-31 11:25:00,73.6,41.1,29.06,South,177,3.1,3.1,31,0.00,,SKC,0.04,VWS V14.01,2013-05-31 16:25:00,
2013-05-31 11:30:00,73.9,41.4,29.03,SE,143,4.0,4.9,31,0.00,,SKC,0.04,VWS V14.01,2013-05-31 16:30:00,
2013-05-31 11:35:00,73.8,40.4,29.03,SSE,164,2.7,6.3,30,0.00,,SKC,0.04,VWS V14.01,2013-05-31 16:35:00,
2013-05-31 11:40:00,73.6,41.1,29.03,SSE,151,0.0,0.0,31,0.00,,SKC,0.04,VWS V14.01,2013-05-31 16:40:00,
2013-05-31 11:45:00,73.4,41.0,29.06,SSE,163,2.2,3.1,31,0.00,,SKC,0.04,VWS V14.01,2013-05-31 16:45:00,
2013-05-31 11:50:00,73.4,41.0,29.06,South,176,3.1,5.4,31,0.00,,SKC,0.04,VWS V14.01,2013-05-31 16:50:00,
2013-05-31 11:55:00,73.0,41.5,29.06,SSE,167,3.1,4.0,32,0.00,,SKC,0.04,VWS V14.01,2013-05-31 16:55:00,
2013-05-31 12:00:00,72.9,42.9,29.06,South,176,4.9,6.3,34,0.00,,SKC,0.04,VWS V14.01,2013-05-31 17:00:00,
2013-05-31 12:05:00,72.7,42.7,29.06,South,175,0.0,0.0,34,0.00,,SKC,0.04,VWS V14.01,2013-05-31 17:05:00,
2013-05-31 12:10:00,72.9,42.1,29.06,South,175,3.1,3.6,33,0.00,,SKC,0.04,VWS V14.01,2013-05-31 17:10:00,
2013-05-31 12:15:00,73.2,41.6,29.06,South,178,5.4,5.4,32,0.00,,SKC,0.04,VWS V14.01,2013-05-31 17:15:00,
2013-05-31 12:20:00,73.8,42.1,29.06,South,170,3.6,3.6,32,0.00,,SKC,0.04,VWS V14.01,2013-05-31 17:20:00,
2013-05-31 12:25:00,73.9,42.2,29.06,South,171,2.7,2.7,32,0.00,,SKC,0.04,VWS V14.01,2013-05-31 17:25:00,
2013-05-31 12:30:00,73.9,41.4,29.06,South,182,3.1,5.4,31,0.00,,SKC,0.04,VWS V14.01,2013-05-31 17:30:00,
2013-05-31 12:35:00,73.9,41.4,29.06,South,174,3.6,3.6,31,0.00,,SKC,0.04,VWS V14.01,2013-05-31 17:35:00,
2013-05-31 12:40:00,73.8,41.3,29.06,South,188,8.1,8.1,31,0.00,,SKC,0.04,VWS V14.01,2013-05-31 17:40:00,
2013-05-31 12:45:00,73.8,42.1,29.06,South,169,4.0,4.0,32,0.00,,SKC,0.04,VWS V14.01,2013-05-31 17:45:00,
2013-05-31 12:50:00,73.4,41.8,29.06,SSE,164,3.6,3.6,32,0.00,,SKC,0.04,VWS V14.01,2013-05-31 17:50:00,
2013-05-31 12:55:00,73.2,42.4,29.06,South,181,3.6,6.3,33,0.00,,SKC,0.04,VWS V14.01,2013-05-31 17:55:00,
2013-05-31 13:00:00,73.4,42.6,29.03,South,180,3.1,3.1,33,0.00,,SKC,0.04,VWS V14.01,2013-05-31 18:00:00,
2013-05-31 13:05:00,73.4,43.3,29.03,South,172,5.8,5.8,34,0.00,,SKC,0.04,VWS V14.01,2013-05-31 18:05:00,
2013-05-31 13:10:00,73.6,41.9,29.03,SSE,168,3.1,5.8,32,0.00,,SKC,0.04,VWS V14.01,2013-05-31 18:10:00,
2013-05-31 13:15:00,73.8,42.1,29.03,South,177,4.9,6.7,32,0.00,,SKC,0.04,VWS V14.01,2013-05-31 18:15:00,
2013-05-31 13:20:00,73.9,42.2,29.03,South,176,2.2,3.6,32,0.00,,SKC,0.04,VWS V14.01,2013-05-31 18:20:00,
2013-05-31 13:25:00,74.1,43.2,29.03,SSE,168,0.0,0.0,33,0.00,,SKC,0.04,VWS V14.01,2013-05-31 18:25:00,
2013-05-31 13:30:00,73.9,41.4,29.03,South,175,2.2,4.0,31,0.00,,SKC,0.04,VWS V14.01,2013-05-31 18:30:00,
2013-05-31 13:35:00,73.9,42.2,29.03,South,171,4.9,4.9,32,0.00,,SKC,0.04,VWS V14.01,2013-05-31 18:35:00,
2013-05-31 13:40:00,73.8,41.3,29.03,SW,219,5.8,6.3,31,0.00,,SKC,0.04,VWS V14.01,2013-05-31 18:40:00,
2013-05-31 13:45:00,73.9,42.2,29.03,South,174,3.1,4.9,32,0.00,,SKC,0.04,VWS V14.01,2013-05-31 18:45:00,
2013-05-31 13:50:00,73.9,42.2,29.03,South,172,3.1,3.1,32,0.00,,SKC,0.04,VWS V14.01,2013-05-31 18:50:00,
2013-05-31 13:55:00,73.9,42.2,29.03,SSE,158,3.1,3.1,32,0.00,,SKC,0.04,VWS V14.01,2013-05-31 18:55:00,
2013-05-31 14:00:00,73.9,42.2,29.00,SSW,206,2.7,2.7,32,0.00,,SKC,0.04,VWS V14.01,2013-05-31 19:00:00,
2013-05-31 14:05:00,73.9,42.2,29.00,SSW,197,3.1,3.1,32,0.00,,SKC,0.04,VWS V14.01,2013-05-31 19:05:00,
2013-05-31 14:10:00,74.3,43.4,29.00,SSE,155,2.7,3.6,33,0.00,,SKC,0.04,VWS V14.01,2013-05-31 19:10:00,
2013-05-31 14:15:00,74.5,43.5,29.03,South,182,3.6,3.6,33,0.00,,SKC,0.04,VWS V14.01,2013-05-31 19:15:00,
2013-05-31 14:20:00,74.8,43.0,29.03,South,187,5.4,5.4,32,0.00,,SKC,0.04,VWS V14.01,2013-05-31 19:20:00,
2013-05-31 14:25:00,75.4,42.7,29.03,South,181,2.2,2.2,31,0.00,,SKC,0.04,VWS V14.01,2013-05-31 19:25:00,
2013-05-31 14:30:00,75.7,43.0,29.00,South,169,4.0,4.0,31,0.00,,SKC,0.04,VWS V14.01,2013-05-31 19:30:00,
2013-05-31 14:35:00,75.9,41.4,29.00,SSE,155,5.8,5.8,29,0.00,,SKC,0.04,VWS V14.01,2013-05-31 19:35:00,
2013-05-31 14:40:00,75.9,41.4,29.00,SSE,166,4.0,6.3,29,0.00,,SKC,0.04,VWS V14.01,2013-05-31 19:40:00,
2013-05-31 14:45:00,75.9,38.6,29.00,SSW,198,4.0,6.3,26,0.00,,SKC,0.04,VWS V14.01,2013-05-31 19:45:00,
2013-05-31 14:50:00,76.1,41.6,29.00,South,175,3.1,3.1,29,0.00,,SKC,0.04,VWS V14.01,2013-05-31 19:50:00,
2013-05-31 14:55:00,76.1,43.3,29.00,South,173,0.0,3.6,31,0.00,,SKC,0.04,VWS V14.01,2013-05-31 19:55:00,
2013-05-31 15:00:00,75.6,40.2,29.00,SSW,212,8.3,8.3,28,0.00,,SKC,0.04,VWS V14.01,2013-05-31 20:00:00,
2013-05-31 15:05:00,75.7,42.1,29.00,South,191,3.1,3.6,30,0.00,,SKC,0.04,VWS V14.01,2013-05-31 20:05:00,
2013-05-31 15:10:00,75.7,41.3,29.00,SW,216,2.2,4.9,29,0.00,,SKC,0.04,VWS V14.01,2013-05-31 20:10:00,
2013-05-31 15:15:00,75.9,41.4,29.00,SSE,149,5.8,5.8,29,0.00,,SKC,0.04,VWS V14.01,2013-05-31 20:15:00,
2013-05-31 15:20:00,76.6,40.2,29.00,South,172,3.6,8.1,27,0.00,,SKC,0.04,VWS V14.01,2013-05-31 20:20:00,
2013-05-31 15:25:00,76.8,41.3,29.00,SSE,161,3.6,3.6,28,0.00,,SKC,0.04,VWS V14.01,2013-05-31 20:25:00,
2013-05-31 15:30:00,76.3,38.9,29.00,SE,146,5.4,12.3,26,0.00,,SKC,0.04,VWS V14.01,2013-05-31 20:30:00,
2013-05-31 15:35:00,76.1,39.7,29.00,SSE,155,4.0,4.9,27,0.00,,SKC,0.04,VWS V14.01,2013-05-31 20:35:00,
2013-05-31 15:40:00,75.9,40.5,29.00,South,180,2.7,5.4,28,0.00,,SKC,0.04,VWS V14.01,2013-05-31 20:40:00,
2013-05-31 15:45:00,75.9,41.4,28.97,SSE,154,2.7,4.9,29,0.00,,SKC,0.04,VWS V14.01,2013-05-31 20:45:00,
2013-05-31 15:50:00,75.6,42.8,28.97,SSE,162,3.1,4.0,31,0.00,,SKC,0.04,VWS V14.01,2013-05-31 20:50:00,
2013-05-31 15:54:00,75.4,41.8,28.97,SSE,159,4.0,5.8,30,0.00,,SKC,0.04,VWS V14.01,2013-05-31 20:54:00,
2013-05-31 15:59:00,75.7,43.0,29.00,SSE,150,3.1,4.9,31,0.00,,SKC,0.04,VWS V14.01,2013-05-31 20:59:00,
2013-05-31 16:04:00,75.6,42.0,29.00,SE,143,2.7,3.1,30,0.00,,SKC,0.04,VWS V14.01,2013-05-31 21:04:00,
2013-05-31 16:09:00,75.4,41.0,29.00,South,185,6.3,6.3,29,0.00,,SKC,0.04,VWS V14.01,2013-05-31 21:09:00,
2013-05-31 16:14:00,75.4,42.7,29.00,South,179,0.0,0.0,31,0.00,,SKC,0.04,VWS V14.01,2013-05-31 21:14:00,
2013-05-31 16:19:00,75.4,42.7,29.00,SSE,161,2.2,4.0,31,0.00,,SKC,0.04,VWS V14.01,2013-05-31 21:19:00,
2013-05-31 16:24:00,75.2,42.5,29.00,South,180,2.7,3.1,31,0.00,,SKC,0.04,VWS V14.01,2013-05-31 21:24:00,
2013-05-31 16:29:00,75.2,42.5,29.00,South,170,5.8,5.8,31,0.00,,SKC,0.04,VWS V14.01,2013-05-31 21:29:00,
2013-05-31 16:34:00,75.4,42.7,29.00,SE,141,2.2,5.8,31,0.00,,SKC,0.04,VWS V14.01,2013-05-31 21:34:00,
2013-05-31 16:39:00,75.6,42.8,29.00,SSE,157,0.0,2.7,31,0.00,,SKC,0.04,VWS V14.01,2013-05-31 21:39:00,
2013-05-31 16:44:00,75.6,41.1,29.00,SSW,199,2.2,5.8,29,0.00,,SKC,0.04,VWS V14.01,2013-05-31 21:44:00,
2013-05-31 16:49:00,75.7,43.0,29.00,South,178,2.2,2.7,31,0.00,,SKC,0.04,VWS V14.01,2013-05-31 21:49:00,
2013-05-31 16:54:00,75.6,42.0,29.00,South,179,4.0,5.8,30,0.00,,SKC,0.04,VWS V14.01,2013-05-31 21:54:00,
2013-05-31 16:59:00,75.6,42.8,29.00,SSE,160,2.7,2.7,31,0.00,,SKC,0.04,VWS V14.01,2013-05-31 21:59:00,
2013-05-31 17:04:00,75.6,42.8,29.00,SE,144,3.6,3.6,31,0.00,,SKC,0.04,VWS V14.01,2013-05-31 22:04:00,
2013-05-31 17:09:00,75.6,42.8,29.00,South,171,3.6,3.6,31,0.00,,SKC,0.04,VWS V14.01,2013-05-31 22:09:00,
2013-05-31 17:14:00,75.6,42.8,28.97,SSE,148,3.6,4.9,31,0.00,,SKC,0.04,VWS V14.01,2013-05-31 22:14:00,
2013-05-31 17:19:00,75.4,42.7,28.97,South,174,4.9,5.8,31,0.00,,SKC,0.04,VWS V14.01,2013-05-31 22:19:00,
2013-05-31 17:24:00,75.6,43.7,28.97,SSE,160,0.0,2.7,32,0.00,,SKC,0.04,VWS V14.01,2013-05-31 22:24:00,
2013-05-31 17:29:00,75.4,42.7,28.94,South,179,0.0,4.0,31,0.00,,SKC,0.04,VWS V14.01,2013-05-31 22:29:00,
2013-05-31 17:34:00,75.4,42.7,28.94,SSE,160,3.6,5.4,31,0.00,,SKC,0.04,VWS V14.01,2013-05-31 22:34:00,
2013-05-31 17:39:00,75.0,42.4,28.94,SSW,194,5.8,6.3,31,0.00,,SKC,0.04,VWS V14.01,2013-05-31 22:39:00,
2013-05-31 17:44:00,75.2,42.5,28.94,SE,146,3.6,4.0,31,0.00,,SKC,0.04,VWS V14.01,2013-05-31 22:44:00,
2013-05-31 17:49:00,75.0,42.4,28.94,South,178,0.0,3.1,31,0.00,,SKC,0.04,VWS V14.01,2013-05-31 22:49:00,
2013-05-31 17:54:00,75.0,42.4,28.94,South,176,3.6,3.6,31,0.00,,SKC,0.04,VWS V14.01,2013-05-31 22:54:00,
2013-05-31 17:59:00,75.0,42.4,28.94,South,173,4.9,5.4,31,0.00,,SKC,0.04,VWS V14.01,2013-05-31 22:59:00,
2013-05-31 18:04:00,75.0,43.2,28.94,SW,217,5.8,5.8,32,0.00,,SKC,0.04,VWS V14.01,2013-05-31 23:04:00,
2013-05-31 18:09:00,74.8,42.2,28.94,SSE,166,2.7,3.6,31,0.00,,SKC,0.04,VWS V14.01,2013-05-31 23:09:00,
2013-05-31 18:14:00,74.7,42.0,28.94,SE,146,6.3,8.1,31,0.00,,SKC,0.04,VWS V14.01,2013-05-31 23:14:00,
2013-05-31 18:19:00,74.5,42.7,28.94,SSE,153,4.0,4.9,32,0.00,,SKC,0.04,VWS V14.01,2013-05-31 23:19:00,
2013-05-31 18:24:00,74.1,43.2,28.94,SSE,168,5.8,5.8,33,0.00,,SKC,0.04,VWS V14.01,2013-05-31 23:24:00,
2013-05-31 18:29:00,73.9,43.0,28.85,SSE,160,5.4,8.1,33,0.00,,SKC,0.04,VWS V14.01,2013-05-31 23:29:00,
2013-05-31 18:34:00,73.9,43.8,28.85,WSW,252,4.0,4.0,34,0.00,,SKC,0.04,VWS V14.01,2013-05-31 23:34:00,
2013-05-31 18:39:00,73.8,43.7,28.85,South,172,4.9,4.9,34,0.00,,SKC,0.04,VWS V14.01,2013-05-31 23:39:00,
2013-05-31 18:44:00,73.8,43.7,28.91,South,177,2.7,3.1,34,0.00,,SKC,0.04,VWS V14.01,2013-05-31 23:44:00,
2013-05-31 18:49:00,73.6,43.5,28.91,SSE,151,4.0,4.0,34,0.00,,SKC,0.04,VWS V14.01,2013-05-31 23:49:00,
2013-05-31 18:54:00,73.6,43.5,28.91,South,184,0.0,2.7,34,0.00,,SKC,0.04,VWS V14.01,2013-05-31 23:54:00,
2013-05-31 18:59:00,73.8,43.7,28.94,NNE,13,0.0,0.0,34,0.00,,SKC,0.04,VWS V14.01,2013-05-31 23:59:00,
2013-05-31 19:04:00,73.8,42.1,28.94,WNW,299,2.7,2.7,32,0.00,,SKC,0.04,VWS V14.01,2013-06-01 00:04:00,
2013-05-31 19:09:00,73.9,41.4,28.94,NW,313,3.1,3.6,31,0.00,,SKC,0.04,VWS V14.01,2013-06-01 00:09:00,
2013-05-31 19:14:00,74.1,43.2,28.94,NW,313,0.0,0.0,33,0.00,,SKC,0.04,VWS V14.01,2013-06-01 00:14:00,
2013-05-31 19:19:00,73.9,43.0,28.94,NW,313,0.0,0.0,33,0.00,,SKC,0.04,VWS V14.01,2013-06-01 00:19:00,
2013-05-31 19:24:00,73.6,43.5,28.94,South,182,0.0,3.6,34,0.00,,SKC,0.04,VWS V14.01,2013-06-01 00:24:00,
2013-05-31 19:29:00,73.6,43.5,28.94,West,263,3.1,3.1,34,0.00,,SKC,0.04,VWS V14.01,2013-06-01 00:29:00,
2013-05-31 19:34:00,73.2,46.1,28.94,South,190,2.7,2.7,38,0.00,,SKC,0.04,VWS V14.01,2013-06-01 00:34:00,
2013-05-31 19:39:00,73.0,46.6,28.94,South,190,0.0,2.7,39,0.00,,SKC,0.04,VWS V14.01,2013-06-01 00:39:00,
2013-05-31 19:44:00,73.0,46.0,28.94,SSE,147,0.0,2.7,38,0.00,,SKC,0.04,VWS V14.01,2013-06-01 00:44:00,
2013-05-31 19:49:00,73.0,46.0,28.94,South,171,3.6,3.6,38,0.00,,SKC,0.04,VWS V14.01,2013-06-01 00:49:00,
2013-05-31 19:54:00,72.7,42.7,28.94,SE,145,4.9,4.9,34,0.00,,SKC,0.04,VWS V14.01,2013-06-01 00:54:00,
2013-05-31 19:59:00,72.9,42.1,28.91,South,182,3.6,5.4,33,0.00,,SKC,0.04,VWS V14.01,2013-06-01 00:59:00,
2013-05-31 20:04:00,72.5,41.0,28.91,South,178,7.6,7.6,32,0.00,,SKC,0.04,VWS V14.01,2013-06-01 01:04:00,
2013-05-31 20:09:00,72.5,40.2,28.91,SSE,161,3.6,3.6,31,0.00,,SKC,0.04,VWS V14.01,2013-06-01 01:09:00,
2013-05-31 20:14:00,72.3,39.2,28.94,SSE,162,3.1,3.1,30,0.00,,SKC,0.04,VWS V14.01,2013-06-01 01:14:00,
2013-05-31 20:19:00,72.1,40.7,28.94,South,177,3.1,3.1,32,0.00,,SKC,0.04,VWS V14.01,2013-06-01 01:19:00,
2013-05-31 20:24:00,72.0,39.7,28.94,South,172,2.7,3.1,31,0.00,,SKC,0.04,VWS V14.01,2013-06-01 01:24:00,
2013-05-31 20:29:00,71.8,38.7,28.91,South,172,2.7,2.7,30,0.00,,SKC,0.04,VWS V14.01,2013-06-01 01:29:00,
2013-05-31 20:34:00,71.6,40.2,28.91,South,170,2.7,3.1,32,0.00,,SKC,0.04,VWS V14.01,2013-06-01 01:34:00,
2013-05-31 20:39:00,71.4,40.0,28.91,South,170,4.0,4.0,32,0.00,,SKC,0.04,VWS V14.01,2013-06-01 01:39:00,
2013-05-31 20:44:00,71.4,37.5,28.94,SSE,168,2.7,2.7,29,0.00,,SKC,0.04,VWS V14.01,2013-06-01 01:44:00,
2013-05-31 20:49:00,71.6,39.4,28.94,South,186,3.1,3.1,31,0.00,,SKC,0.04,VWS V14.01,2013-06-01 01:49:00,
2013-05-31 20:54:00,71.2,39.1,28.94,SSE,159,3.1,3.1,31,0.00,,SKC,0.04,VWS V14.01,2013-06-01 01:54:00,
2013-05-31 20:59:00,71.1,39.7,28.94,South,180,3.1,3.1,32,0.00,,SKC,0.04,VWS V14.01,2013-06-01 01:59:00,
2013-05-31 21:04:00,70.9,39.6,28.94,South,171,2.7,4.0,32,0.00,,SKC,0.04,VWS V14.01,2013-06-01 02:04:00,
2013-05-31 21:09:00,70.9,39.6,28.94,SSE,161,0.0,3.1,32,0.00,,SKC,0.04,VWS V14.01,2013-06-01 02:09:00,
2013-05-31 21:14:00,70.7,39.4,28.94,South,184,3.1,3.1,32,0.00,,SKC,0.04,VWS V14.01,2013-06-01 02:14:00,
2013-05-31 21:19:00,70.9,39.6,28.94,South,169,2.7,3.6,32,0.00,,SKC,0.04,VWS V14.01,2013-06-01 02:19:00,
2013-05-31 21:24:00,70.7,38.6,28.94,South,183,2.7,2.7,31,0.00,,SKC,0.04,VWS V14.01,2013-06-01 02:24:00,
2013-05-31 21:29:00,70.7,39.4,28.97,South,179,2.2,3.1,32,0.00,,SKC,0.04,VWS V14.01,2013-06-01 02:29:00,
2013-05-31 21:34:00,70.5,39.3,28.97,South,180,3.1,3.6,32,0.00,,SKC,0.04,VWS V14.01,2013-06-01 02:34:00,
2013-05-31 21:39:00,70.5,40.1,28.97,South,182,2.7,2.7,33,0.00,,SKC,0.04,VWS V14.01,2013-06-01 02:39:00,
2013-05-31 21:44:00,70.2,39.7,28.97,South,181,3.1,3.6,33,0.00,,SKC,0.04,VWS V14.01,2013-06-01 02:44:00,
2013-05-31 21:49:00,70.0,38.8,28.97,South,186,2.2,3.1,32,0.00,,SKC,0.04,VWS V14.01,2013-06-01 02:49:00,
2013-05-31 21:54:00,70.0,39.6,28.97,South,174,4.9,5.8,33,0.00,,SKC,0.04,VWS V14.01,2013-06-01 02:54:00,
2013-05-31 21:59:00,69.8,39.4,28.97,South,176,2.2,4.0,33,0.00,,SKC,0.04,VWS V14.01,2013-06-01 02:59:00,
2013-05-31 22:04:00,69.6,39.3,28.97,South,179,5.8,5.8,33,0.00,,SKC,0.04,VWS V14.01,2013-06-01 03:04:00,
2013-05-31 22:09:00,69.8,39.4,28.97,South,189,2.7,2.7,33,0.00,,SKC,0.04,VWS V14.01,2013-06-01 03:09:00,
2013-05-31 22:14:00,69.6,40.0,28.94,South,171,2.2,4.0,34,0.00,,SKC,0.04,VWS V14.01,2013-06-01 03:14:00,
2013-05-31 22:19:00,69.4,39.9,28.94,South,171,2.7,3.1,34,0.00,,SKC,0.04,VWS V14.01,2013-06-01 03:19:00,
2013-05-31 22:24:00,69.4,39.9,28.94,SSE,154,3.1,3.1,34,0.00,,SKC,0.04,VWS V14.01,2013-06-01 03:24:00,
2013-05-31 22:29:00,69.3,40.5,28.97,South,186,5.4,5.8,35,0.00,,SKC,0.04,VWS V14.01,2013-06-01 03:29:00,
2013-05-31 22:34:00,69.3,41.2,28.97,SSE,164,4.0,4.0,36,0.00,,SKC,0.04,VWS V14.01,2013-06-01 03:34:00,
2013-05-31 22:39:00,69.1,41.7,28.97,SSE,159,4.0,5.8,37,0.00,,SKC,0.04,VWS V14.01,2013-06-01 03:39:00,
2013-05-31 22:44:00,69.1,43.1,28.94,SSE,160,4.0,4.0,39,0.00,,SKC,0.04,VWS V14.01,2013-06-01 03:44:00,
2013-05-31 22:49:00,68.9,44.2,28.94,South,179,5.4,5.8,41,0.00,,SKC,0.04,VWS V14.01,2013-06-01 03:49:00,
2013-05-31 22:54:00,68.9,45.5,28.94,South,174,3.1,4.5,43,0.00,,SKC,0.04,VWS V14.01,2013-06-01 03:54:00,
2013-05-31 22:59:00,68.7,46.0,28.94,SSE,152,5.4,5.8,44,0.00,,SKC,0.04,VWS V14.01,2013-06-01 03:59:00,
2013-05-31 23:01:00,68.7,46.0,28.94,SSE,161,0.0,5.8,44,0.00,,SKC,0.04,VWS V14.01,2013-06-01 04:01:00,
2013-05-31 23:06:00,68.7,47.1,28.94,South,169,3.1,3.6,46,0.00,,SKC,0.04,VWS V14.01,2013-06-01 04:06:00,
2013-05-31 23:11:00,68.7,48.3,28.94,South,177,3.6,5.4,48,0.00,,SKC,0.04,VWS V14.01,2013-06-01 04:11:00,
2013-05-31 23:16:00,68.7,49.9,28.94,SSE,159,2.7,7.2,51,0.00,,SKC,0.04,VWS V14.01,2013-06-01 04:16:00,
2013-05-31 23:21:00,68.5,50.8,28.94,SSE,165,0.0,0.0,53,0.00,,SKC,0.04,VWS V14.01,2013-06-01 04:21:00,
2013-05-31 23:26:00,68.5,51.2,28.94,SSE,164,3.1,3.6,54,0.00,,SKC,0.04,VWS V14.01,2013-06-01 04:26:00,
2013-05-31 23:31:00,68.5,52.2,28.94,South,185,6.3,6.3,56,0.00,,SKC,0.04,VWS V14.01,2013-06-01 04:31:00,
2013-05-31 23:36:00,68.5,53.2,28.94,SSE,159,3.6,4.9,58,0.00,,SKC,0.04,VWS V14.01,2013-06-01 04:36:00,
2013-05-31 23:41:00,68.7,54.3,28.94,South,171,5.8,5.8,60,0.00,,SKC,0.04,VWS V14.01,2013-06-01 04:41:00,
2013-05-31 23:46:00,68.9,54.5,28.94,SSE,157,5.4,5.4,60,0.00,,SKC,0.04,VWS V14.01,2013-06-01 04:46:00,
2013-05-31 23:51:00,69.1,55.1,28.94,SSE,168,2.7,3.1,61,0.00,,SKC,0.04,VWS V14.01,2013-06-01 04:51:00,
2013-05-31 23:56:00,69.1,55.5,28.94,South,180,3.1,3.1,62,0.00,,SKC,0.04,VWS V14.01,2013-06-01 04:56:00,